Regional Weather Roundup
Issued by NWS

Home | Current Version | Previous Version | Text Only | Print | Product List | Glossary On
Versions: 1 2 3 4 5 6 7 8 9 10 11 12 13 14 15 16 17 18 19 20 21 22 23 24 25 26 27 28 29 30 31 32 33 34 35 36 37 38 39 40 41 42 43 44 45 46 47 48 49 50
000
ASUS43 KDTX 270410
RWRMI
MICHIGAN HOURLY REGIONAL WEATHER ROUNDUP
NATIONAL WEATHER SERVICE DETROIT/PONTIAC MI
1200 AM EDT WED AUG 27 2014

NOTE: "FAIR" INDICATES FEW OR NO CLOUDS BELOW 12,000 FEET WITH NO
SIGNIFICANT WEATHER AND/OR OBSTRUCTION TO VISIBILITY.

MIZ047>049-052>055-059>063-066>070-074>076-081>083-270500-
SOUTHEAST LOWER MICHIGAN

CITY           SKY/WX    TMP DP  RH WIND       PRES   REMARKS
ADRIAN         CLEAR     70  68  93 N6        30.10R
ALMA           CLEAR     64  61  92 NW3       30.09F
ANN ARBOR      PTCLDY    70  67  90 NW8       30.08S
BAD AXE        CLOUDY    65  60  84 NE6       30.09R
CARO           PTCLDY    65  62  87 NE3       30.07R
DETROIT CITY   CLEAR     73  67  81 W9        30.07R
DETROIT        MOCLDY    70  68  93 W7        30.07S
FLINT          CLEAR     72  67  84 W9        30.08R
GROSSE ILE     PTCLDY    72  68  88 NW5       30.06R
HILLSDALE      MOCLDY    71  71 100 NW3       30.11S FOG
HOWELL         CLEAR     68  67  98 W8        30.09S FOG

CITY           SKY/WX    TMP DP  RH WIND       PRES   REMARKS
JACKSON        CLOUDY    70  68  93 NW5       30.10S
LAMBERTVILLE   CLEAR     70  66  88 CALM      30.08R
LANSING        CLEAR     67  65  93 W6        30.10S
LAPEER         CLOUDY    70  67  92 CALM      30.07R
MASON          CLEAR     67  65  94 W6        30.11R
MONROE         CLEAR     68  66  94 N2        30.06R
MT. CLEMENS    MOCLDY    70  67  91 W6        30.05R
PONTIAC        CLOUDY    71  68  90 W9        30.08R
PORT HOPE        N/A     66  59  78 N10       30.07R
PORT HURON     CLOUDY    68  66  94 N5        30.07R
TRI CITIES     CLEAR     69  65  86 N7        30.09R
TROY           CLOUDY    72  68  88 W5        30.08S
SAGINAW HB     CLEAR     68  68 100 N6        30.07R
$$
MIZ043>046-050>051-056>058-064>065-071>073-077>080-270500-
SOUTHWEST LOWER MICHIGAN

CITY           SKY/WX    TMP DP  RH WIND       PRES   REMARKS
BATTLE CREEK   PTCLDY    68  64  87 N5        30.12R
BENTON HARBOR  FOG       63  62  97 CALM      30.09F VSB 3/4
BIG RAPIDS     CLEAR     60  59  98 CALM      30.11R
COLDWATER      CLOUDY    72  71  96 CALM      30.10S FOG
FREMONT        FAIR      61  58  91 N3        30.11R
HOLLAND        CLEAR     63  60  90 CALM      30.12R
GRAND RAPIDS   CLEAR     66  61  84 CALM      30.10R
IONIA          FAIR      65  63  96 CALM      30.10R
KALAMAZOO      CLEAR     67  64  90 N3        30.11S
LUDINGTON      CLEAR     57  56  98 CALM      30.11R
MARSHALL       CLOUDY    70  68  95 CALM      30.11R
MOUNT PLEASANT CLEAR     64  61  87 NW3       30.10R
MUSKEGON       CLEAR     63  58  83 CALM      30.11R
SOUTH HAVEN    CLEAR     63  62  97 CALM      30.10F
$$
MIZ016>042-270500-
NORTHERN LOWER MICHIGAN

CITY           SKY/WX    TMP DP  RH WIND       PRES   REMARKS
ALPENA         PTCLDY    56  53  90 NW3       30.10R
BEAVER ISLAND  CLEAR     58  51  77 N3        30.13R
BELLAIRE       CLEAR     55  53  95 CALM      30.09F FOG
CADILLAC       CLEAR     55  55 100 CALM      30.11S
CHARLEVOIX     PTCLDY    62  56  80 N13       30.13S
FRANKFORT      CLEAR     57  54  89 CALM      30.11S
GAYLORD        CLEAR     57  54  89 CALM      30.10S
GRAYLING       CLEAR     54  54 100 CALM      30.12R
HARBOR SPRINGS CLEAR     58  54  88 CALM      30.11R
HOUGHTON LAKE  CLEAR     60  57  89 NW3       30.11R
MANISTEE       CLEAR     55  54  94 CALM      30.11S
OSCODA         CLOUDY    62  56  80 N5        30.09R
PELLSTON       CLEAR     52  51  97 W3        30.11R
TRAVERSE CITY  CLEAR     58  55  90 CALM      30.09S
$$
MIZ007>008-015-270500-
EASTERN UPPER MICHIGAN

CITY           SKY/WX    TMP DP  RH WIND       PRES   REMARKS
KINROSS        PTCLDY    54  54 100 NW8       30.10F
MACKINAC ISLAN CLEAR     55  50  85 N7        30.10S
NEWBERRY       PTCLDY    51  48  89 W3        30.12S
S. S. MARIE    CLEAR     54  50  86 NW6       30.10S
MUNISING         N/A     53  49  86 S3        30.12S
$$
MIZ004>006-011>014-085-270500-
CENTRAL UPPER MICHIGAN

CITY           SKY/WX    TMP DP  RH WIND       PRES   REMARKS
MANISTIQUE     MOCLDY    52  49  90 N7        30.12R
ESCANABA       CLEAR     55  48  76 N3        30.13R
MENOMINEE      CLEAR     61  54  77 N9        30.12R
SAWYER-GWINN   CLEAR     54  47  78 NW5       30.14R
$$
MIZ001>003-009>011-084-270500-
WESTERN UPPER MICHIGAN

CITY           SKY/WX    TMP DP  RH WIND       PRES   REMARKS
IRON MOUNTAIN  CLEAR     52  48  86 CALM      30.13S
HOUGHTON       CLOUDY    57  50  77 NW5       30.12S
COPPER HARBOR    N/A     59  50  72 N12       30.11S
$$

ABBREVIATIONS USED IN REMARKS
   TC - TEMPERATURE IN CELSIUS
  WCI - WIND CHILL INDEX
   HX - HEAT INDEX
  VSB - VISIBILITY



USA.gov is the U.S. government's official web portal to all federal, state and local government web resources and services.